DW8673 Jerrabomberra AU current weather conditions

sailwx.info

Wind from 269 at 5 knots gusting 13

Air temperature 18.9° C
Dewpoint -0.5° C

Last reported at 2014-Jul-31 03:43 UTC.
Time now 2014-Jul-31 05:22 UTC

Location: S 35°23' E 149°12'.
View on Google Maps.

See reports from other nearby stations

  
Tides and Currents Weather Stations Pressure Air Temp Water Temp Dewpoint Dewpoint Depression Visibility Wind Speed Wind Dir Waves Ship Positions
date/time (UTC)wind fromknots sea level pressurealtimeterstation pressurevisibilityair tempwater tempwave heightnotes
2014-Jul-31 04:43 029 8 gusting 13 17.8
2014-Jul-31 04:33 324 5 gusting 13 18.3
2014-Jul-31 04:13 281 8 gusting 13 18.3
2014-Jul-31 04:03 281 8 gusting 13 18.3
2014-Jul-31 03:43 269 5 gusting 13 18.9
2014-Jul-31 03:33 281 4 gusting 13 18.9
2014-Jul-31 03:13 300 5 gusting 12 18.9
2014-Jul-31 03:03 250 4 gusting 12 18.9
2014-Jul-31 02:43 251 7 gusting 17 18.3
2014-Jul-31 02:13 316 6 gusting 12 18.3
2014-Jul-31 02:03 272 7 gusting 13 18.3
2014-Jul-31 01:43 311 8 gusting 17 18.3
2014-Jul-31 01:33 259 8 gusting 15 18.3
2014-Jul-31 01:13 291 5 gusting 19 17.8
2014-Jul-31 01:03 252 6 gusting 13 17.8
2014-Jul-31 00:43 332 4 gusting 11 17.2
2014-Jul-31 00:33 275 6 gusting 17 17.2
2014-Jul-31 00:13 329 4 gusting 6 16.7
2014-Jul-31 00:03 347 4 gusting 6 16.1
2014-Jul-30 23:43 325 2 gusting 6 15.6
2014-Jul-30 23:33 310 3 gusting 6 15.0
2014-Jul-30 23:13 318 4 gusting 6 13.9
2014-Jul-30 23:03 354 4 gusting 6 13.3
2014-Jul-30 22:43 330 2 gusting 6 11.7
2014-Jul-30 22:33 259 4 gusting 7 11.1
2014-Jul-30 22:13 327 3 gusting 6 10.6
2014-Jul-30 22:03 317 3 gusting 6 10.0
2014-Jul-30 21:43 307 2 gusting 5 9.4
2014-Jul-30 21:33 303 3 gusting 6 8.9
2014-Jul-30 21:13 312 1 gusting 4 8.3
2014-Jul-30 21:03 298 2 gusting 6 8.9
2014-Jul-30 20:43 328 1 gusting 5 8.9
2014-Jul-30 20:33 344 2 gusting 5 8.3
2014-Jul-30 20:13 359 1 gusting 6 8.3
2014-Jul-30 20:03 003 1 gusting 5 8.3
2014-Jul-30 19:43 068 1 gusting 4 8.3
2014-Jul-30 19:33 086 1 gusting 4 8.9
2014-Jul-30 19:13 134 0 gusting 2 8.9
2014-Jul-30 19:03 309 0 gusting 5 8.9
2014-Jul-30 18:43 344 2 gusting 7 10.0
2014-Jul-30 18:33 358 1 gusting 13 10.6
2014-Jul-30 18:13 9.4
2014-Jul-30 18:03 057 1 gusting 4 10.0
2014-Jul-30 17:43 081 1 gusting 6 10.6
2014-Jul-30 17:33 356 4 gusting 6 10.6
2014-Jul-30 17:13 342 1 gusting 4 10.6
2014-Jul-30 17:03 057 1 gusting 5 10.6
2014-Jul-30 16:43 174 1 gusting 4 11.1
2014-Jul-30 16:33 093 1 gusting 6 11.1
2014-Jul-30 16:13 028 1 gusting 4 11.1
2014-Jul-30 16:03 001 1 gusting 5 11.1
2014-Jul-30 15:43 356 1 gusting 4 11.1
2014-Jul-30 15:33 036 1 gusting 6 11.1
2014-Jul-30 15:13 075 1 gusting 4 11.1
2014-Jul-30 15:03 008 2 gusting 6 11.1
2014-Jul-30 14:43 347 1 gusting 5 11.1
2014-Jul-30 14:33 298 2 gusting 5 11.1
2014-Jul-30 14:13 338 1 gusting 4 11.1
2014-Jul-30 14:03 307 1 gusting 6 11.1
2014-Jul-30 13:43 290 2 gusting 6 11.7
2014-Jul-30 13:33 297 4 gusting 6 11.7
2014-Jul-30 13:13 342 2 gusting 5 11.7
2014-Jul-30 13:03 358 2 gusting 6 11.7
2014-Jul-30 12:43 268 2 gusting 6 12.2
2014-Jul-30 12:33 278 2 gusting 6 12.2
2014-Jul-30 12:13 261 2 gusting 6 12.2
2014-Jul-30 12:03 001 4 gusting 6 12.2
2014-Jul-30 11:43 351 2 gusting 4 12.2
2014-Jul-30 11:33 326 2 gusting 7 12.2
2014-Jul-30 11:13 285 3 gusting 7 12.8
2014-Jul-30 11:03 326 1 gusting 6 12.2
2014-Jul-30 10:43 270 2 gusting 6 12.8
2014-Jul-30 10:33 278 3 gusting 7 12.8
2014-Jul-30 10:13 266 4 gusting 10 12.8
2014-Jul-30 10:03 299 2 gusting 10 12.8
2014-Jul-30 09:43 263 3 gusting 10 12.8
2014-Jul-30 09:33 238 4 gusting 10 12.8
2014-Jul-30 09:13 274 2 gusting 5 13.3
2014-Jul-30 09:03 224 2 gusting 8 13.3
2014-Jul-30 08:43 300 4 gusting 6 13.3
2014-Jul-30 08:33 260 4 gusting 6 13.3
2014-Jul-30 08:13 171 3 gusting 6 12.8
2014-Jul-30 08:03 283 4 gusting 11 13.3
2014-Jul-30 07:43 227 4 gusting 6 13.3
2014-Jul-30 07:33 288 2 gusting 7 13.3
2014-Jul-30 07:13 259 4 gusting 10 13.3
2014-Jul-30 07:03 331 2 gusting 8 13.9
2014-Jul-30 06:43 288 2 gusting 6 14.4
2014-Jul-30 06:33 306 4 gusting 6 13.9
2014-Jul-30 06:13 243 4 gusting 6 13.9
2014-Jul-30 06:03 320 4 gusting 8 14.4
2014-Jul-30 05:43 214 4 gusting 8 13.9
2014-Jul-30 05:33 344 5 gusting 11 13.9
2014-Jul-30 05:13 325 3 gusting 6 13.9
2014-Jul-30 05:03 295 3 gusting 6 13.9
2014-Jul-30 04:43 290 4 gusting 6 13.9
2014-Jul-30 04:33 297 3 gusting 7 13.3
2014-Jul-30 04:13 292 4 gusting 7 13.9
2014-Jul-30 04:03 314 4 gusting 8 13.3
2014-Jul-30 03:43 276 2 gusting 11 13.9
2014-Jul-30 03:33 292 3 gusting 7 13.9
2014-Jul-30 03:13 306 2 gusting 6 14.4
2014-Jul-30 03:03 298 4 gusting 10 13.9
2014-Jul-30 02:43 338 2 gusting 10 13.9
2014-Jul-30 02:33 303 2 gusting 12 14.4
2014-Jul-30 02:13 312 4 gusting 10 14.4
2014-Jul-30 02:03 329 4 gusting 6 13.9
2014-Jul-30 01:43 296 4 gusting 6 13.9
2014-Jul-30 01:33 311 6 gusting 11 13.9
2014-Jul-30 01:13 200 4 gusting 7 14.4
2014-Jul-30 01:03 334 4 gusting 8 14.4
2014-Jul-30 00:43 273 4 gusting 8 15.6
2014-Jul-30 00:33 351 4 gusting 8 15.0
2014-Jul-30 00:13 265 4 gusting 8 15.0
2014-Jul-30 00:03 198 4 gusting 8 15.0
2014-Jul-29 23:43 286 5 gusting 10 14.4
2014-Jul-29 23:33 342 5 gusting 8 14.4
2014-Jul-29 23:13 319 4 gusting 6 13.3
2014-Jul-29 23:03 298 5 gusting 7 12.8
2014-Jul-29 22:43 304 3 gusting 6 11.1
2014-Jul-29 22:33 326 4 gusting 7 11.1
2014-Jul-29 22:13 317 3 gusting 5 11.1
2014-Jul-29 22:03 354 3 gusting 7 11.1
2014-Jul-29 21:43 312 2 gusting 4 11.7
2014-Jul-29 21:33 289 0 gusting 6 11.7
2014-Jul-29 21:13 292 2 gusting 6 11.7
2014-Jul-29 21:03 299 2 gusting 8 11.7
2014-Jul-29 20:43 259 3 gusting 6 11.7
2014-Jul-29 20:33 266 2 gusting 6 12.2
2014-Jul-29 20:13 335 2 gusting 6 12.2
2014-Jul-29 20:03 272 2 gusting 5 11.7
2014-Jul-29 19:43 303 2 gusting 7 12.2
2014-Jul-29 19:33 273 2 gusting 6 12.2
2014-Jul-29 19:13 297 2 gusting 8 12.2
2014-Jul-29 19:03 315 2 gusting 6 12.2
2014-Jul-29 18:43 313 2 gusting 6 12.2
2014-Jul-29 18:33 324 3 gusting 6 12.2
2014-Jul-29 18:13 315 2 gusting 7 12.2
2014-Jul-29 18:03 314 1 gusting 5 12.2
2014-Jul-29 17:43 291 1 gusting 5 12.2
2014-Jul-29 17:33 325 1 gusting 7 12.2
2014-Jul-29 17:13 266 2 gusting 7 12.2
2014-Jul-29 17:03 305 2 gusting 6 12.2
2014-Jul-29 16:43 314 3 gusting 5 12.2
2014-Jul-29 16:33 289 1 gusting 6 12.2
2014-Jul-29 16:13 307 2 gusting 7 12.2
2014-Jul-29 16:03 331 2 gusting 8 12.2
2014-Jul-29 15:43 304 2 gusting 6 11.7
2014-Jul-29 15:33 335 1 gusting 8 11.7
2014-Jul-29 15:13 349 1 gusting 5 11.7
2014-Jul-29 15:03 267 2 gusting 6 11.7
2014-Jul-29 14:43 328 4 gusting 6 12.2
2014-Jul-29 14:33 307 1 gusting 7 12.2
2014-Jul-29 14:13 238 3 gusting 11 12.8
2014-Jul-29 14:03 270 2 gusting 11 12.2
2014-Jul-29 13:43 304 3 gusting 6 11.7
2014-Jul-29 13:33 297 1 gusting 7 11.7
2014-Jul-29 13:13 281 1 gusting 4 11.7
2014-Jul-29 13:03 275 1 gusting 5 11.7
2014-Jul-29 12:43 331 2 gusting 5 11.7
2014-Jul-29 12:33 299 1 gusting 6 11.7
2014-Jul-29 12:13 265 2 gusting 6 11.7
2014-Jul-29 12:03 315 4 gusting 7 11.7
2014-Jul-29 11:43 292 1 gusting 5 11.1
2014-Jul-29 11:33 263 1 gusting 7 11.1
2014-Jul-29 11:13 271 1 gusting 6 11.1
2014-Jul-29 11:03 243 2 gusting 6 11.1
2014-Jul-29 10:43 334 1 gusting 6 11.1
2014-Jul-29 10:33 253 1 gusting 7 11.1
2014-Jul-29 10:13 232 1 gusting 5 11.1
2014-Jul-29 10:03 248 2 gusting 7 11.1
2014-Jul-29 09:43 261 2 gusting 5 11.1
2014-Jul-29 09:33 241 2 gusting 10 11.1
2014-Jul-29 09:13 253 2 gusting 5 11.1
2014-Jul-29 09:03 358 2 gusting 8 11.7
2014-Jul-29 08:43 283 2 gusting 6 11.1
2014-Jul-29 08:33 272 0 gusting 6 11.1
2014-Jul-29 08:13 226 2 gusting 6 11.7
2014-Jul-29 08:03 138 0 gusting 4 11.7
2014-Jul-29 07:43 332 1 gusting 4 12.2
2014-Jul-29 07:33 274 1 gusting 8 12.2
2014-Jul-29 07:13 324 2 gusting 7 13.3
2014-Jul-29 07:03 316 1 gusting 6 13.9
2014-Jul-29 06:43 024 1 gusting 6 16.1
2014-Jul-29 06:33 277 2 gusting 6 16.1
2014-Jul-29 06:13 268 2 gusting 7 15.0
2014-Jul-29 06:03 312 4 gusting 10 15.0
2014-Jul-29 05:43 293 4 gusting 10 15.6
2014-Jul-29 05:33 335 3 gusting 8 16.1
2014-Jul-29 05:13 287 6 gusting 12 17.8
2014-Jul-29 05:03 267 5 gusting 12 17.8